Theta_e
315 314 315 315 314 314 313 313 313 313 313 313 314 316 314 313 313 309 302 308 311 317 320 315 316 313 308 304 302 301 295 293 294 293 296 301 300 305 307 306 307 318 322 333 346
313 314 314 313 313 313 313 313 313 312 312 313 313 314 314 314 307 303 312 315 318 320 311 309 307 308 302 302 300 298 294 295 298 299 298 300 302 303 303 304 304 307 332 343 347
311 311 311 311 311 311 311 311 311 312 312 312 312 312 313 312 300 299 317 318 318 319 314 312 309 305 300 300 298 298 293 296 297 301 302 301 301 303 302 301 304 304 310 338 342
311 311 311 310 310 310 310 310 311 311 311 311 312 312 313 307 291 310 324 319 320 319 313 308 305 301 299 296 299 293 296 298 299 301 301 299 302 301 303 304 307 308 316 331 340
310 310 310 310 310 310 310 310 311 311 310 310 310 311 308 298 298 308 319 311 309 317 310 306 302 301 297 299 297 295 296 298 300 300 301 301 299 300 301 304 307 308 308 311 330
309 310 310 309 309 309 311 311 311 310 310 310 310 310 303 292 306 308 307 306 307 315 311 309 303 304 300 299 298 299 298 298 299 298 299 297 298 299 301 305 305 306 308 309 312
310 309 309 309 309 309 310 310 310 311 310 310 311 306 298 296 306 308 307 306 311 315 310 312 308 303 302 298 301 299 295 296 297 298 297 299 295 296 302 304 303 305 307 311 317
310 309 308 308 308 309 309 310 310 310 311 311 311 304 293 306 309 306 306 304 307 308 306 309 313 306 301 301 298 296 296 292 297 297 298 298 293 298 303 303 303 305 307 317 326
309 309 308 308 308 310 310 309 310 310 311 311 305 301 293 307 302 306 306 302 304 304 306 307 310 305 302 296 293 294 291 291 294 299 298 297 295 301 304 303 303 305 306 310 317
308 309 309 308 309 309 308 309 308 308 308 307 305 295 298 295 303 306 309 305 301 301 299 300 303 299 299 295 288 290 290 292 292 295 297 295 296 300 302 302 303 305 305 309 315
308 309 309 309 310 308 307 302 297 294 297 294 295 295 297 301 308 306 308 303 302 298 292 297 294 292 295 297 296 297 294 293 295 297 296 295 295 298 302 301 303 304 305 307 320
308 308 308 310 309 308 303 296 295 297 288 295 294 294 299 300 295 298 307 298 297 293 294 292 290 297 299 298 296 294 293 292 296 298 297 296 295 299 301 302 304 305 306 307 309
309 309 309 309 308 302 299 298 302 299 288 291 294 293 294 296 291 294 298 298 296 294 291 289 292 297 297 296 294 295 292 293 293 295 297 296 294 297 300 302 303 305 307 308 309
309 308 308 308 303 301 299 302 301 299 283 286 290 296 298 300 294 301 301 296 294 292 293 292 296 295 295 294 296 291 297 295 293 292 288 295 288 295 299 300 302 305 306 306 308
307 308 308 307 301 298 301 302 303 297 274 289 292 304 300 295 297 299 305 296 290 291 295 291 292 292 293 294 297 293 298 295 296 293 291 291 290 294 297 297 300 304 307 310 312
307 307 308 303 301 302 303 303 298 284 275 285 292 292 292 294 295 299 298 301 297 291 294 293 299 296 296 298 298 299 296 296 295 293 287 291 290 291 295 300 304 308 311 313 315
308 308 305 303 297 302 302 299 284 278 289 285 288 292 291 291 293 294 292 291 289 284 286 291 294 297 300 295 298 297 293 286 284 284 285 293 290 293 302 306 306 307 309 311 315
306 306 301 301 303 301 301 292 279 285 286 291 290 289 288 292 291 293 291 289 293 291 287 284 283 294 300 297 294 295 294 287 280 282 285 290 287 293 305 308 308 309 310 311 311
305 301 299 301 302 303 296 284 282 286 288 287 287 286 287 290 290 291 289 287 292 293 287 285 286 295 299 301 300 294 291 296 289 290 287 288 295 302 307 306 306 306 308 309 310
300 296 297 302 303 302 291 283 286 290 290 289 282 287 284 287 287 289 289 292 289 296 298 293 286 294 299 301 301 298 299 288 291 282 281 287 291 293 302 302 304 305 306 308 309
298 293 299 303 302 294 283 284 287 292 292 288 286 286 287 287 288 288 289 292 293 296 299 294 294 291 298 295 294 294 293 293 293 291 286 284 290 303 305 304 304 305 307 306 306
295 289 300 301 290 291 285 288 291 291 294 292 289 288 287 288 287 288 289 292 295 299 292 296 293 289 292 299 302 299 295 295 289 287 293 292 293 307 308 306 306 303 303 304 304
291 290 300 300 284 284 288 289 291 290 291 290 288 288 289 287 287 290 292 297 299 297 295 299 291 286 288 292 297 296 297 297 296 296 293 290 292 306 308 305 303 301 301 302 303
293 286 292 294 292 287 285 287 286 293 292 292 291 292 289 288 292 289 291 295 299 298 302 302 295 289 289 291 293 293 294 296 295 291 293 295 294 301 303 300 299 300 300 301 302
295 289 290 284 287 288 289 288 286 286 291 293 290 290 288 285 288 288 291 292 296 300 298 299 293 294 294 295 295 295 294 295 293 295 292 296 297 301 301 299 299 300 300 300 300
291 289 291 288 290 288 288 286 286 288 289 288 287 289 290 288 289 287 290 291 291 296 294 299 294 296 293 296 295 294 295 294 294 298 298 299 298 306 303 300 300 299 300 298 298
298 298 292 288 288 286 286 287 287 290 291 292 291 290 289 292 294 295 296 296 295 295 289 294 296 295 289 295 294 289 294 294 297 300 301 297 300 301 298 299 299 299 299 298 297
Wind_Speed
18 18 17 17 17 18 19 19 18 18 17 17 17 14 15 18 18 17 17 14 12 20 6 6 7 9 9 7 4 3 8 12 12 10 6 4 6 4 1 7 3 1 4 4 9
18 18 18 18 17 17 17 17 18 19 18 17 17 16 15 17 19 19 17 13 18 2 12 11 12 16 8 10 7 8 9 13 8 12 5 7 10 6 5 6 3 8 2 3 13
19 19 18 19 19 19 18 18 18 18 18 17 16 15 16 14 9 7 1 16 12 13 3 9 9 12 9 7 10 10 14 9 8 12 15 15 9 4 7 10 7 9 7 5 10
20 20 20 20 20 19 20 20 20 20 19 18 15 14 14 5 10 5 16 9 7 10 9 10 10 9 10 12 13 8 11 12 14 11 9 11 4 4 9 8 7 9 7 6 11
21 22 22 22 23 22 23 23 22 22 20 19 17 13 7 8 16 5 11 7 7 13 15 14 17 17 14 12 9 16 9 15 18 12 13 6 7 9 10 7 13 16 13 13 12
23 24 24 24 24 24 24 24 23 23 23 22 18 14 11 20 12 10 14 11 8 17 14 12 11 12 12 8 20 7 19 15 11 16 13 16 18 14 8 4 10 9 13 15 14
22 24 25 26 27 26 24 25 29 28 26 25 20 13 20 26 8 5 7 3 2 11 11 17 9 15 8 4 14 8 7 10 17 19 11 7 17 14 14 18 18 17 14 13 11
21 22 24 26 27 27 27 27 29 30 31 26 19 12 15 10 21 31 25 20 16 8 3 4 11 8 8 1 4 17 12 15 13 9 9 16 13 2 16 17 19 17 12 11 10
23 23 26 28 29 29 29 30 34 27 19 14 7 10 12 5 14 17 22 19 20 21 11 5 12 9 12 11 9 14 11 17 10 18 10 15 6 9 18 14 14 14 12 13 12
25 25 25 27 29 29 29 32 22 6 6 5 2 7 10 8 6 5 6 18 6 15 13 7 9 13 14 19 24 15 20 9 14 15 24 17 12 9 5 10 18 16 11 12 13
27 25 26 26 27 28 20 7 6 2 4 12 14 14 20 6 3 5 5 16 7 12 19 15 13 27 32 27 17 12 11 19 11 7 17 18 14 16 12 7 11 12 8 8 12
29 29 29 28 26 24 5 5 3 5 17 20 29 30 31 21 18 20 14 9 10 9 22 13 29 25 19 23 20 9 13 13 9 12 14 12 15 16 12 10 10 12 11 11 11
28 29 28 27 27 2 6 4 3 3 7 19 10 10 9 10 16 19 20 12 11 15 27 21 12 25 22 21 25 23 12 11 10 9 5 10 9 11 10 11 8 11 11 10 12
28 30 29 27 4 5 6 1 2 2 5 8 2 2 5 8 6 9 13 20 19 21 22 18 23 20 26 25 23 24 20 11 9 12 7 6 4 11 15 14 10 13 10 9 9
31 32 28 16 6 5 7 3 4 2 6 7 2 1 2 5 15 6 5 13 23 22 16 16 16 25 25 26 24 13 20 16 10 8 4 7 6 5 5 13 10 3 2 1 3
33 33 27 1 2 6 5 8 2 3 6 11 5 15 20 24 17 7 2 13 11 23 24 20 12 21 24 23 24 14 21 15 7 5 9 10 8 8 7 4 6 4 3 4 4
32 31 14 3 8 5 7 2 2 3 11 8 21 22 26 14 10 4 4 2 7 10 22 23 20 20 19 23 22 22 26 12 11 9 7 13 11 2 2 1 2 4 4 5 6
33 23 5 4 8 7 2 2 4 7 12 19 18 27 9 11 9 2 8 2 12 6 15 14 20 24 21 25 19 27 25 11 15 14 13 10 11 5 2 4 5 7 8 9 11
26 6 5 5 9 1 2 4 5 6 11 12 18 9 10 11 10 8 4 4 7 14 6 15 16 24 21 24 23 29 26 11 6 4 9 9 3 3 4 7 8 10 11 12 12
9 5 5 12 4 1 3 5 4 7 11 7 5 4 11 14 12 11 5 2 4 15 13 14 12 27 17 25 24 28 23 11 7 11 12 8 7 8 11 10 11 12 12 13 15
3 3 6 16 1 4 6 8 13 19 18 5 6 6 7 8 11 8 5 3 5 6 3 2 9 22 17 13 27 21 22 10 6 2 7 10 6 1 12 14 15 14 13 14 16
5 3 9 10 7 5 8 14 19 13 21 5 4 4 4 7 5 6 7 8 7 5 4 4 2 13 11 5 22 25 24 17 7 7 2 5 4 2 12 13 15 16 16 17 17
7 4 4 6 8 11 13 12 13 19 17 7 5 2 5 4 6 8 11 14 13 4 4 4 3 7 11 5 5 26 27 17 6 4 6 7 7 6 15 14 14 18 18 17 18
4 6 4 4 3 10 13 12 17 18 13 13 7 7 13 4 4 6 11 8 8 7 11 4 3 2 2 9 10 20 25 23 11 5 8 5 15 12 14 17 16 17 17 19 18
5 3 1 8 9 16 16 11 22 16 6 9 4 15 18 5 7 7 6 9 7 10 4 1 8 9 7 24 21 14 24 24 13 9 4 16 22 18 17 20 19 19 19 19 18
4 4 2 7 13 16 10 12 17 24 8 9 9 22 15 6 6 14 12 5 4 7 9 5 3 5 12 26 20 17 17 20 14 11 13 21 16 15 17 19 19 21 20 19 17
2 3 3 6 7 10 8 15 23 22 11 13 21 18 11 9 16 18 12 10 7 6 5 5 2 10 5 22 19 10 12 11 7 3 21 17 14 24 20 19 18 20 19 18 16
Wind_Direction
351 347 343 340 341 339 339 336 333 330 328 325 319 312 316 312 303 290 258 228 202 242 193 145 143 162 161 165 149 149 225 232 223 198 225 192 202 204 236 234 218 282 287 326 160
350 347 345 342 337 334 331 327 324 322 321 321 322 325 318 314 304 269 246 224 222 44 202 194 162 160 168 178 175 196 225 221 214 222 225 207 219 214 231 213 235 288 140 98 159
350 346 343 340 335 331 327 323 319 315 314 316 316 317 313 318 296 243 280 200 210 215 186 200 165 163 182 172 178 197 228 211 213 221 230 248 241 218 227 244 242 263 308 170 179
347 344 342 337 332 328 323 319 316 313 312 310 308 303 304 309 283 148 119 116 184 187 195 184 194 189 190 197 193 216 222 209 222 216 220 241 242 209 220 251 268 275 291 229 199
343 339 336 333 329 326 321 316 312 308 304 300 294 288 287 227 245 270 281 336 314 174 190 188 190 199 204 202 191 223 205 211 227 220 221 229 223 263 251 257 269 273 269 252 235
340 337 333 330 327 324 321 315 308 304 300 295 284 275 243 244 265 250 270 296 227 183 193 196 211 210 228 218 207 209 216 222 221 229 238 248 253 244 255 235 253 259 264 267 238
338 335 332 326 324 321 317 312 307 304 297 287 271 254 244 238 239 222 227 205 326 191 204 208 218 191 199 214 226 196 192 221 231 237 236 192 249 226 235 251 265 264 257 268 239
333 330 327 321 320 317 315 309 299 299 295 285 266 232 249 240 250 251 253 257 267 261 227 229 211 235 215 243 121 212 235 228 187 183 216 196 250 236 226 229 236 249 249 246 230
333 331 328 325 324 321 319 312 304 306 300 279 225 200 260 301 240 247 227 219 231 227 231 250 198 211 191 200 206 196 206 217 209 208 189 197 218 255 218 208 237 247 249 243 246
334 331 328 325 323 322 324 311 306 317 52 94 240 184 255 242 219 225 194 201 192 187 204 218 193 198 209 198 209 196 211 186 191 191 214 199 215 232 143 204 231 249 251 244 240
333 330 329 326 324 327 326 326 2 339 332 243 244 227 281 242 268 192 130 154 188 171 184 190 192 205 202 211 228 217 193 204 191 173 194 205 204 234 249 216 237 246 225 223 234
332 332 333 329 325 326 328 352 294 323 297 271 260 261 264 277 280 251 150 166 191 181 187 178 221 214 210 209 215 198 200 202 191 194 197 189 215 229 221 227 227 236 237 228 232
330 331 334 330 324 345 317 268 345 346 266 302 286 263 259 201 229 268 215 209 205 191 186 198 202 212 205 199 205 217 203 180 154 152 198 166 208 213 211 225 218 243 238 233 226
330 332 333 332 308 339 322 357 358 273 300 281 271 165 199 199 235 212 223 203 215 216 195 218 224 186 193 205 196 205 203 185 172 182 194 217 206 207 216 203 206 223 222 226 217
330 331 328 330 293 296 337 299 322 209 301 355 205 199 312 270 295 108 145 207 214 204 193 208 202 199 199 207 198 203 180 192 187 203 201 180 224 142 177 201 204 172 112 254 287
332 329 330 247 246 259 315 303 179 225 268 314 306 316 317 315 301 141 177 191 232 210 215 224 205 187 200 196 188 167 166 179 161 185 235 192 216 187 178 143 142 118 62 10 12
333 325 327 274 316 336 314 252 271 285 333 310 326 326 320 303 299 140 274 255 175 154 206 202 213 198 193 183 183 174 158 155 179 198 217 182 193 103 116 19 208 145 103 63 44
332 321 308 245 298 321 282 266 340 327 319 320 311 311 286 320 334 107 316 285 218 183 176 182 200 214 182 188 176 192 179 174 176 184 165 177 196 146 66 76 108 107 95 81 76
329 328 299 329 325 192 326 26 325 324 307 305 311 309 330 332 329 338 315 278 182 213 148 189 205 187 191 179 169 184 193 180 134 154 160 158 147 177 138 109 108 105 95 87 88
333 325 310 351 353 47 19 331 297 288 298 262 287 304 313 333 321 332 332 283 269 222 254 188 189 180 183 180 193 183 174 177 178 165 168 170 174 151 168 143 124 114 106 101 100
348 332 359 339 267 30 35 316 308 318 333 294 302 294 297 320 318 307 266 233 250 240 156 355 203 171 170 191 183 179 186 201 117 217 164 154 151 32 153 148 130 118 106 106 99
345 334 357 337 31 6 348 328 302 313 334 303 277 272 278 300 281 302 293 323 158 272 188 244 19 153 175 254 193 177 188 181 174 154 65 154 115 65 132 130 125 111 110 104 99
342 298 346 346 22 354 337 322 340 329 332 330 297 257 293 284 302 307 325 331 178 172 189 215 147 137 146 67 356 180 186 194 121 153 171 145 143 132 122 110 113 118 115 109 105
346 345 347 10 349 338 329 336 340 331 311 324 284 299 328 300 249 308 321 341 16 353 291 302 150 110 186 138 146 170 185 178 187 192 155 106 138 150 134 125 127 122 118 114 108
9 30 104 318 334 329 325 327 326 346 308 312 279 332 334 297 324 344 312 318 305 0 7 287 160 189 230 142 162 164 179 181 182 150 180 149 153 158 147 140 136 125 124 121 109
359 346 298 290 294 323 341 329 333 328 312 303 310 325 317 307 326 309 316 319 321 339 350 346 127 159 139 152 172 169 173 189 186 94 93 135 122 136 123 127 137 133 129 117 111
333 267 278 289 329 325 325 324 322 325 310 299 312 314 306 323 309 296 286 269 268 323 350 283 215 128 98 155 150 177 168 142 122 119 143 147 149 131 136 138 142 137 127 123 118